History for Miami, FL

Saturday, December 29, 2012 — View Current Conditions

Jump to Data:

Date:
Airport Code:
Recently Viewed Airport Codes: KMIA
Daily Summary
  Actual Average Record
Temperature
Mean Temperature 78°F 69°F  
Max Temperature 84°F 77°F 85°F (1981)
Min Temperature 72°F 61°F 41°F (1961)
Degree Days
Heating Degree Days 0 2  
Month to date heating degree days 12 30  
Since 1 July heating degree days 13 33  
Cooling Degree Days 13 5  
Month to date cooling degree days 235 192  
Year to date cooling degree days 4675 4564  
Growing Degree Days 26 (Base 50)    
Moisture
Dew Point 69°F    
Average Humidity 78    
Maximum Humidity 93    
Minimum Humidity 63    
Precipitation
Precipitation 0.00 in 0.05 in 0.98 in (1939)
Month to date precipitation 0.51 1.92  
Year to date precipitation 86.94 61.78  
Snow
Snow 0.00 in in in ()
Month to date snowfall 0.0  
Since 1 July snowfall 0.0  
Snow Depth 0.00 in    
Sea Level Pressure
Sea Level Pressure 30.02 in    
Wind
Wind Speed 8 mph (SW)    
Max Wind Speed 17 mph    
Max Gust Speed 25 mph    
Visibility 10 miles    
Events      
T = Trace of Precipitation, MM = Missing Value Source: NWS Daily Summary

Show full METARS

(help) - Comma Delimited File

Hourly Observations

Time(EST) Temperature Dew Point Humidity Sea Level Pressure Visibility Wind Direction Wind Speed Gust Speed Precipitation Events Conditions
12:53 AM 73.0°F 70.0°F 90% 30.00 in 10.0 miles SSE 4.6 mph - N/A   Scattered Clouds
1:53 AM 73.0°F 71.1°F 93% 29.98 in 10.0 miles SSE 5.8 mph - N/A   Scattered Clouds
2:53 AM 73.0°F 70.0°F 90% 29.96 in 10.0 miles SSE 9.2 mph - N/A   Scattered Clouds
3:53 AM 73.9°F 70.0°F 87% 29.97 in 10.0 miles SSE 5.8 mph - N/A   Scattered Clouds
4:53 AM 73.0°F 70.0°F 90% 29.97 in 10.0 miles SSE 4.6 mph - N/A   Partly Cloudy
5:53 AM 73.0°F 70.0°F 90% 30.00 in 10.0 miles Variable 4.6 mph - N/A   Scattered Clouds
6:53 AM 72.0°F 70.0°F 93% 30.01 in 10.0 miles South 5.8 mph - N/A   Mostly Cloudy
7:53 AM 73.0°F 71.1°F 93% 30.03 in 10.0 miles South 4.6 mph - N/A   Mostly Cloudy
8:53 AM 75.0°F 72.0°F 90% 30.05 in 10.0 miles SSW 5.8 mph - N/A   Mostly Cloudy
9:53 AM 78.1°F 72.0°F 81% 30.06 in 10.0 miles South 10.4 mph 17.3 mph N/A   Overcast
10:53 AM 80.1°F 72.0°F 76% 30.05 in 10.0 miles SSW 11.5 mph - N/A   Mostly Cloudy
11:53 AM 82.9°F 70.0°F 65% 30.02 in 10.0 miles SW 12.7 mph - N/A   Mostly Cloudy
12:53 PM 82.0°F 70.0°F 67% 30.00 in 10.0 miles WSW 12.7 mph - N/A   Mostly Cloudy
1:53 PM 82.9°F 70.0°F 65% 29.98 in 10.0 miles WSW 12.7 mph 20.7 mph N/A   Mostly Cloudy
2:53 PM 82.0°F 68.0°F 62% 29.97 in 10.0 miles WSW 12.7 mph 20.7 mph N/A   Mostly Cloudy
3:53 PM 81.0°F 68.0°F 65% 29.97 in 10.0 miles WSW 10.4 mph - N/A   Mostly Cloudy
4:53 PM 80.1°F 68.0°F 67% 29.97 in 10.0 miles WSW 11.5 mph - N/A   Mostly Cloudy
5:53 PM 78.1°F 68.0°F 71% 29.99 in 10.0 miles WSW 9.2 mph - N/A   Mostly Cloudy
6:32 PM 77.0°F 69.8°F 78% 30.00 in 10.0 miles WSW 10.4 mph - N/A   Mostly Cloudy
6:47 PM 77.0°F 69.8°F 78% 30.01 in 10.0 miles WSW 11.5 mph - N/A   Mostly Cloudy
6:53 PM 77.0°F 70.0°F 79% 30.01 in 10.0 miles WSW 12.7 mph - N/A   Mostly Cloudy
7:53 PM 75.0°F 70.0°F 84% 30.03 in 10.0 miles WSW 8.1 mph - N/A   Scattered Clouds
8:08 PM 75.2°F 69.8°F 83% 30.04 in 10.0 miles WSW 9.2 mph - N/A   Overcast
8:50 PM 73.4°F 69.8°F 88% 30.06 in 10.0 miles West 8.1 mph - N/A   Mostly Cloudy
8:53 PM 73.9°F 70.0°F 87% 30.06 in 10.0 miles West 5.8 mph - N/A   Mostly Cloudy
9:53 PM 72.0°F 66.0°F 81% 30.08 in 10.0 miles West 8.1 mph 18.4 mph N/A   Scattered Clouds
10:42 PM 69.8°F 62.6°F 78% 30.10 in 10.0 miles WNW 10.4 mph 17.3 mph N/A   Mostly Cloudy
10:53 PM 69.1°F 63.0°F 81% 30.11 in 10.0 miles WNW 10.4 mph - N/A   Mostly Cloudy
11:53 PM 64.9°F 50.0°F 58% 30.12 in 10.0 miles NW 11.5 mph 19.6 mph N/A   Partly Cloudy